Saint Bonnet de Bellac- Haute Vienne - France
Donnes mto: lundi, 10/09/2012
Date Horaire Temp. E. Hum. E. P.atmo. Pluie Vent Direction Direction Ensoleilleme Solaire P. de rose Temp au vent Rafales
10/09/2012 00:00 18,6 C 70 % 1015,7 hPa 0,0 mm 0,0 km/h (0 Bft) SE 135 0 min 0 W/m 13,0 C 18,6 C 0,0 km/h (0 Bft)
10/09/2012 00:10 18,4 C 69 % 1015,8 hPa 0,0 mm 0,0 km/h (0 Bft) E-SE 112 0 min 0 W/m 12,6 C 18,4 C 0,0 km/h (0 Bft)
10/09/2012 00:20 18,3 C 70 % 1015,7 hPa 0,0 mm 1,4 km/h (1 Bft) E-SE 112 0 min 0 W/m 12,7 C 18,3 C 1,4 km/h (1 Bft)
10/09/2012 00:30 18,1 C 70 % 1015,7 hPa 0,0 mm 2,9 km/h (1 Bft) E-SE 112 0 min 0 W/m 12,5 C 18,1 C 4,0 km/h (1 Bft)
10/09/2012 00:40 18,0 C 70 % 1015,7 hPa 0,0 mm 0,4 km/h (0 Bft) E-SE 112 0 min 0 W/m 12,4 C 18,0 C 3,2 km/h (1 Bft)
10/09/2012 00:50 18,0 C 70 % 1015,6 hPa 0,0 mm 0,0 km/h (0 Bft) E 90 0 min 0 W/m 12,4 C 18,0 C 0,0 km/h (0 Bft)
10/09/2012 01:00 17,9 C 71 % 1015,6 hPa 0,0 mm 0,0 km/h (0 Bft) E 90 0 min 0 W/m 12,6 C 17,9 C 0,0 km/h (0 Bft)
10/09/2012 01:10 17,8 C 70 % 1015,6 hPa 0,0 mm 0,0 km/h (0 Bft) E 90 0 min 0 W/m 12,3 C 17,8 C 0,0 km/h (0 Bft)
10/09/2012 01:20 17,7 C 71 % 1015,8 hPa 0,0 mm 0,0 km/h (0 Bft) O-NO 292 0 min 0 W/m 12,4 C 17,7 C 0,0 km/h (0 Bft)
10/09/2012 01:30 17,5 C 73 % 1015,9 hPa 0,0 mm 0,0 km/h (0 Bft) NO 315 0 min 0 W/m 12,6 C 17,5 C 0,0 km/h (0 Bft)
10/09/2012 01:40 17,4 C 74 % 1015,9 hPa 0,0 mm 0,0 km/h (0 Bft) NO 315 0 min 0 W/m 12,7 C 17,4 C 0,0 km/h (0 Bft)
10/09/2012 01:50 17,5 C 74 % 1015,9 hPa 0,0 mm 0,0 km/h (0 Bft) NO 315 0 min 0 W/m 12,8 C 17,5 C 0,0 km/h (0 Bft)
10/09/2012 02:00 17,7 C 76 % 1016,0 hPa 0,0 mm 0,0 km/h (0 Bft) SO 225 0 min 0 W/m 13,4 C 17,7 C 0,0 km/h (0 Bft)
10/09/2012 02:10 17,8 C 76 % 1016,2 hPa 0,0 mm 1,1 km/h (1 Bft) O 270 0 min 0 W/m 13,5 C 17,8 C 4,0 km/h (1 Bft)
10/09/2012 02:20 17,9 C 76 % 1016,1 hPa 0,0 mm 0,7 km/h (0 Bft) O 270 0 min 0 W/m 13,6 C 17,9 C 3,2 km/h (1 Bft)
10/09/2012 02:30 17,9 C 76 % 1016,1 hPa 0,0 mm 0,0 km/h (0 Bft) O 270 0 min 0 W/m 13,6 C 17,9 C 0,0 km/h (0 Bft)
10/09/2012 02:40 17,9 C 76 % 1016,1 hPa 0,0 mm 0,0 km/h (0 Bft) O-SO 247 0 min 0 W/m 13,6 C 17,9 C 0,0 km/h (0 Bft)
10/09/2012 02:50 17,8 C 76 % 1016,2 hPa 0,0 mm 0,0 km/h (0 Bft) O 270 0 min 0 W/m 13,5 C 17,8 C 0,0 km/h (0 Bft)
10/09/2012 03:02 17,8 C 76 % 1016,1 hPa 0,0 mm 0,0 km/h (0 Bft) O 270 0 min 0 W/m 13,5 C 17,8 C 0,0 km/h (0 Bft)
10/09/2012 03:10 17,7 C 76 % 1016,1 hPa 0,0 mm 0,0 km/h (0 Bft) O 270 0 min 0 W/m 13,4 C 17,7 C 0,0 km/h (0 Bft)
10/09/2012 03:20 17,4 C 76 % 1016,1 hPa 0,0 mm 0,0 km/h (0 Bft) O 270 0 min 0 W/m 13,1 C 17,4 C 0,0 km/h (0 Bft)
10/09/2012 03:30 17,2 C 77 % 1016,1 hPa 0,0 mm 0,0 km/h (0 Bft) O 270 0 min 0 W/m 13,1 C 17,2 C 0,0 km/h (0 Bft)
10/09/2012 03:40 16,9 C 77 % 1016,1 hPa 0,0 mm 0,0 km/h (0 Bft) O 270 0 min 0 W/m 12,8 C 16,9 C 0,0 km/h (0 Bft)
10/09/2012 03:50 16,6 C 78 % 1016,1 hPa 0,0 mm 0,0 km/h (0 Bft) O 270 0 min 0 W/m 12,7 C 16,6 C 0,0 km/h (0 Bft)
10/09/2012 04:00 16,3 C 78 % 1016,2 hPa 0,0 mm 0,0 km/h (0 Bft) O 270 0 min 0 W/m 12,5 C 16,3 C 0,0 km/h (0 Bft)
10/09/2012 04:10 16,0 C 79 % 1016,1 hPa 0,0 mm 0,0 km/h (0 Bft) O 270 0 min 0 W/m 12,4 C 16,0 C 0,0 km/h (0 Bft)
10/09/2012 04:20 15,7 C 79 % 1016,1 hPa 0,0 mm 0,0 km/h (0 Bft) O 270 0 min 0 W/m 12,1 C 15,7 C 0,0 km/h (0 Bft)
10/09/2012 04:30 15,4 C 80 % 1016,3 hPa 0,0 mm 0,0 km/h (0 Bft) O 270 0 min 0 W/m 12,0 C 15,4 C 0,0 km/h (0 Bft)
10/09/2012 04:40 15,3 C 81 % 1016,3 hPa 0,0 mm 0,0 km/h (0 Bft) O 270 0 min 0 W/m 12,1 C 15,3 C 0,0 km/h (0 Bft)
10/09/2012 04:50 15,2 C 83 % 1016,4 hPa 0,0 mm 0,0 km/h (0 Bft) S-SO 202 0 min 0 W/m 12,3 C 15,2 C 0,0 km/h (0 Bft)
10/09/2012 05:00 15,0 C 83 % 1016,3 hPa 0,0 mm 0,0 km/h (0 Bft) S-SO 202 0 min 0 W/m 12,1 C 15,0 C 0,0 km/h (0 Bft)
10/09/2012 05:10 14,9 C 84 % 1016,2 hPa 0,0 mm 0,0 km/h (0 Bft) S-SO 202 0 min 0 W/m 12,2 C 14,9 C 0,0 km/h (0 Bft)
10/09/2012 05:20 15,0 C 84 % 1016,1 hPa 0,0 mm 0,0 km/h (0 Bft) S 180 0 min 0 W/m 12,3 C 15,0 C 0,0 km/h (0 Bft)
10/09/2012 05:30 15,1 C 85 % 1016,0 hPa 0,0 mm 0,0 km/h (0 Bft) S 180 0 min 0 W/m 12,6 C 15,1 C 0,0 km/h (0 Bft)
10/09/2012 05:40 15,0 C 85 % 1015,9 hPa 0,0 mm 0,0 km/h (0 Bft) E 90 0 min 0 W/m 12,5 C 15,0 C 0,0 km/h (0 Bft)
10/09/2012 05:50 14,9 C 84 % 1015,8 hPa 0,0 mm 0,0 km/h (0 Bft) E-NE 67 0 min 0 W/m 12,2 C 14,9 C 0,0 km/h (0 Bft)
10/09/2012 06:00 14,9 C 85 % 1015,9 hPa 0,0 mm 0,0 km/h (0 Bft) E-NE 67 0 min 0 W/m 12,4 C 14,9 C 0,0 km/h (0 Bft)
10/09/2012 06:10 14,8 C 85 % 1015,9 hPa 0,0 mm 0,0 km/h (0 Bft) E-NE 67 0 min 0 W/m 12,3 C 14,8 C 0,0 km/h (0 Bft)
10/09/2012 06:20 14,8 C 84 % 1015,7 hPa 0,0 mm 0,4 km/h (0 Bft) E-NE 67 0 min 0 W/m 12,1 C 14,8 C 3,2 km/h (1 Bft)
10/09/2012 06:30 14,6 C 84 % 1015,6 hPa 0,0 mm 3,6 km/h (1 Bft) SE 135 0 min 0 W/m 11,9 C 14,6 C 4,3 km/h (1 Bft)
10/09/2012 06:40 14,6 C 86 % 1015,7 hPa 0,0 mm 0,0 km/h (0 Bft) S 180 0 min 0 W/m 12,3 C 14,6 C 0,0 km/h (0 Bft)
10/09/2012 06:50 14,4 C 85 % 1015,9 hPa 0,0 mm 0,0 km/h (0 Bft) S-SO 202 0 min 0 W/m 11,9 C 14,4 C 0,0 km/h (0 Bft)
10/09/2012 07:00 14,4 C 85 % 1015,9 hPa 0,0 mm 0,0 km/h (0 Bft) SE 135 0 min 0 W/m 11,9 C 14,4 C 3,2 km/h (1 Bft)
10/09/2012 07:10 14,5 C 86 % 1015,8 hPa 0,0 mm 0,0 km/h (0 Bft) SE 135 0 min 0 W/m 12,2 C 14,5 C 0,0 km/h (0 Bft)
10/09/2012 07:20 14,4 C 86 % 1015,8 hPa 0,0 mm 0,0 km/h (0 Bft) E-SE 112 0 min 0 W/m 12,1 C 14,4 C 0,0 km/h (0 Bft)
10/09/2012 07:30 14,4 C 86 % 1015,9 hPa 0,0 mm 0,4 km/h (0 Bft) E 90 0 min 0 W/m 12,1 C 14,4 C 3,2 km/h (1 Bft)
10/09/2012 07:40 14,4 C 86 % 1015,8 hPa 0,0 mm 2,2 km/h (1 Bft) E-SE 112 0 min 0 W/m 12,1 C 14,4 C 2,9 km/h (1 Bft)
10/09/2012 07:50 14,4 C 86 % 1015,8 hPa 0,0 mm 0,0 km/h (0 Bft) E-SE 112 0 min 0 W/m 12,1 C 14,4 C 0,0 km/h (0 Bft)
10/09/2012 08:00 14,4 C 86 % 1015,9 hPa 0,0 mm 1,8 km/h (1 Bft) E 90 0 min 0 W/m 12,1 C 14,4 C 2,9 km/h (1 Bft)
10/09/2012 08:10 14,4 C 86 % 1015,8 hPa 0,0 mm 0,0 km/h (0 Bft) E-NE 67 0 min 0 W/m 12,1 C 14,4 C 0,0 km/h (0 Bft)
10/09/2012 08:20 14,5 C 86 % 1016,0 hPa 0,0 mm 1,1 km/h (1 Bft) E-NE 67 0 min 0 W/m 12,2 C 14,5 C 4,3 km/h (1 Bft)
10/09/2012 08:30 14,6 C 87 % 1015,9 hPa 0,0 mm 0,0 km/h (0 Bft) E-NE 67 0 min 0 W/m 12,5 C 14,6 C 0,0 km/h (0 Bft)
10/09/2012 08:40 14,8 C 86 % 1016,0 hPa 0,0 mm 2,9 km/h (1 Bft) E-SE 112 0 min 0 W/m 12,5 C 14,8 C 4,0 km/h (1 Bft)
10/09/2012 08:50 15,1 C 86 % 1016,0 hPa 0,0 mm 1,1 km/h (1 Bft) E-NE 67 0 min 0 W/m 12,8 C 15,1 C 1,1 km/h (1 Bft)
10/09/2012 09:00 15,3 C 86 % 1016,0 hPa 0,0 mm 4,0 km/h (1 Bft) E-SE 112 0 min 0 W/m 13,0 C 15,3 C 4,3 km/h (1 Bft)
10/09/2012 09:10 15,8 C 86 % 1016,0 hPa 0,0 mm 1,8 km/h (1 Bft) SE 135 0 min 0 W/m 13,5 C 15,8 C 1,8 km/h (1 Bft)
10/09/2012 09:20 16,3 C 85 % 1016,0 hPa 0,0 mm 0,7 km/h (0 Bft) S-SE 157 0 min 0 W/m 13,8 C 16,3 C 4,3 km/h (1 Bft)
10/09/2012 09:30 16,8 C 85 % 1016,1 hPa 0,0 mm 0,0 km/h (0 Bft) E-SE 112 0 min 0 W/m 14,3 C 16,8 C 0,0 km/h (0 Bft)
10/09/2012 09:40 17,4 C 84 % 1016,2 hPa 0,0 mm 0,0 km/h (0 Bft) E-SE 112 0 min 0 W/m 14,7 C 17,4 C 0,0 km/h (0 Bft)
10/09/2012 09:50 18,4 C 82 % 1016,2 hPa 0,0 mm 0,0 km/h (0 Bft) E-SE 112 0 min 0 W/m 15,3 C 18,4 C 0,0 km/h (0 Bft)
10/09/2012 10:00 19,2 C 81 % 1016,1 hPa 0,0 mm 1,8 km/h (1 Bft) E-SE 112 0 min 0 W/m 15,9 C 19,2 C 4,3 km/h (1 Bft)
10/09/2012 10:10 19,8 C 78 % 1016,3 hPa 0,0 mm 0,0 km/h (0 Bft) E-SE 112 0 min 0 W/m 15,8 C 19,8 C 0,0 km/h (0 Bft)
10/09/2012 10:20 20,5 C 77 % 1016,3 hPa 0,0 mm 0,0 km/h (0 Bft) E-SE 112 0 min 0 W/m 16,3 C 20,5 C 0,0 km/h (0 Bft)
10/09/2012 10:30 21,3 C 75 % 1016,4 hPa 0,0 mm 0,0 km/h (0 Bft) E 90 0 min 0 W/m 16,7 C 21,3 C 0,0 km/h (0 Bft)
10/09/2012 10:40 21,8 C 71 % 1016,5 hPa 0,0 mm 0,4 km/h (0 Bft) SO 225 0 min 0 W/m 16,3 C 21,8 C 3,2 km/h (1 Bft)
10/09/2012 10:50 22,6 C 65 % 1016,7 hPa 0,0 mm 0,0 km/h (0 Bft) S-SE 157 0 min 0 W/m 15,7 C 22,6 C 3,2 km/h (1 Bft)
10/09/2012 11:00 23,8 C 61 % 1016,8 hPa 0,0 mm 2,2 km/h (1 Bft) SO 225 0 min 0 W/m 15,8 C 23,8 C 2,9 km/h (1 Bft)
10/09/2012 11:10 24,4 C 61 % 1016,8 hPa 0,0 mm 2,2 km/h (1 Bft) O-SO 247 0 min 0 W/m 16,4 C 24,4 C 4,0 km/h (1 Bft)
10/09/2012 11:20 24,8 C 61 % 1016,9 hPa 0,0 mm 0,0 km/h (0 Bft) SO 225 0 min 0 W/m 16,8 C 24,8 C 0,0 km/h (0 Bft)
10/09/2012 11:30 25,1 C 55 % 1016,8 hPa 0,0 mm 2,2 km/h (1 Bft) SO 225 0 min 0 W/m 15,4 C 25,1 C 6,1 km/h (2 Bft)
10/09/2012 11:40 24,8 C 55 % 1016,8 hPa 0,0 mm 4,0 km/h (1 Bft) O-SO 247 0 min 0 W/m 15,1 C 24,8 C 9,0 km/h (2 Bft)
10/09/2012 11:50 24,4 C 55 % 1016,9 hPa 0,0 mm 1,4 km/h (1 Bft) O-SO 247 0 min 0 W/m 14,8 C 24,4 C 6,1 km/h (2 Bft)
10/09/2012 12:00 23,9 C 56 % 1016,7 hPa 0,0 mm 1,1 km/h (1 Bft) SO 225 0 min 0 W/m 14,6 C 23,9 C 7,2 km/h (2 Bft)
10/09/2012 12:10 23,5 C 58 % 1016,7 hPa 0,0 mm 1,8 km/h (1 Bft) S-SO 202 0 min 0 W/m 14,7 C 23,5 C 4,3 km/h (1 Bft)
10/09/2012 12:20 23,5 C 59 % 1016,7 hPa 0,0 mm 1,8 km/h (1 Bft) O-SO 247 0 min 0 W/m 15,0 C 23,5 C 6,8 km/h (2 Bft)
10/09/2012 12:30 23,6 C 60 % 1016,7 hPa 0,0 mm 5,0 km/h (1 Bft) SO 225 0 min 0 W/m 15,4 C 23,6 C 10,8 km/h (2 Bft)
10/09/2012 12:40 23,8 C 59 % 1016,6 hPa 0,0 mm 1,1 km/h (1 Bft) SO 225 0 min 0 W/m 15,3 C 23,8 C 6,8 km/h (2 Bft)
10/09/2012 12:50 23,7 C 61 % 1016,6 hPa 0,0 mm 2,2 km/h (1 Bft) SO 225 0 min 0 W/m 15,7 C 23,7 C 4,0 km/h (1 Bft)
10/09/2012 13:00 23,5 C 62 % 1016,7 hPa 0,0 mm 2,9 km/h (1 Bft) O-NO 292 0 min 0 W/m 15,8 C 23,5 C 2,9 km/h (1 Bft)
10/09/2012 13:10 23,3 C 64 % 1016,6 hPa 0,0 mm 1,8 km/h (1 Bft) O-NO 292 0 min 0 W/m 16,1 C 23,3 C 3,2 km/h (1 Bft)
10/09/2012 13:20 23,3 C 64 % 1016,5 hPa 0,0 mm 0,0 km/h (0 Bft) O 270 0 min 0 W/m 16,1 C 23,3 C 0,0 km/h (0 Bft)
10/09/2012 13:30 23,4 C 64 % 1016,5 hPa 0,0 mm 0,7 km/h (0 Bft) SO 225 0 min 0 W/m 16,2 C 23,4 C 3,2 km/h (1 Bft)
10/09/2012 13:40 23,4 C 64 % 1016,6 hPa 0,0 mm 2,2 km/h (1 Bft) O-SO 247 0 min 0 W/m 16,2 C 23,4 C 2,2 km/h (1 Bft)
10/09/2012 13:50 23,5 C 64 % 1016,5 hPa 0,0 mm 0,4 km/h (0 Bft) O 270 0 min 0 W/m 16,3 C 23,5 C 0,4 km/h (0 Bft)
10/09/2012 14:00 23,5 C 65 % 1016,5 hPa 0,0 mm 0,0 km/h (0 Bft) O 270 0 min 0 W/m 16,5 C 23,5 C 0,0 km/h (0 Bft)
10/09/2012 14:10 23,4 C 65 % 1016,5 hPa 0,0 mm 0,0 km/h (0 Bft) O 270 0 min 0 W/m 16,4 C 23,4 C 0,0 km/h (0 Bft)
10/09/2012 14:20 23,2 C 65 % 1016,4 hPa 0,0 mm 1,8 km/h (1 Bft) NO 315 0 min 0 W/m 16,2 C 23,2 C 6,1 km/h (2 Bft)
10/09/2012 14:30 22,9 C 67 % 1016,4 hPa 0,0 mm 0,0 km/h (0 Bft) N-NO 337 0 min 0 W/m 16,4 C 22,9 C 0,0 km/h (0 Bft)
10/09/2012 14:40 22,6 C 68 % 1016,4 hPa 0,0 mm 0,0 km/h (0 Bft) O 270 0 min 0 W/m 16,4 C 22,6 C 0,0 km/h (0 Bft)
10/09/2012 14:50 22,2 C 70 % 1016,3 hPa 0,0 mm 0,0 km/h (0 Bft) N-NE 22 0 min 0 W/m 16,5 C 22,2 C 0,0 km/h (0 Bft)
10/09/2012 15:00 21,9 C 71 % 1016,3 hPa 0,0 mm 0,0 km/h (0 Bft) O-SO 247 0 min 0 W/m 16,4 C 21,9 C 2,9 km/h (1 Bft)
10/09/2012 15:10 21,8 C 72 % 1016,5 hPa 0,0 mm 1,1 km/h (1 Bft) O 270 0 min 0 W/m 16,5 C 21,8 C 3,2 km/h (1 Bft)
10/09/2012 15:20 21,6 C 73 % 1016,5 hPa 0,0 mm 1,4 km/h (1 Bft) O-SO 247 0 min 0 W/m 16,5 C 21,6 C 4,3 km/h (1 Bft)
10/09/2012 15:30 21,3 C 74 % 1016,3 hPa 0,0 mm 0,0 km/h (0 Bft) O 270 0 min 0 W/m 16,5 C 21,3 C 0,0 km/h (0 Bft)
10/09/2012 15:40 20,9 C 74 % 1016,2 hPa 0,0 mm 0,0 km/h (0 Bft) N 360 0 min 0 W/m 16,1 C 20,9 C 0,0 km/h (0 Bft)
10/09/2012 15:50 20,9 C 74 % 1016,2 hPa 0,0 mm 0,0 km/h (0 Bft) N 360 0 min 0 W/m 16,1 C 20,9 C 0,0 km/h (0 Bft)
10/09/2012 16:00 20,9 C 79 % 1016,0 hPa 0,0 mm 0,0 km/h (0 Bft) N 360 0 min 0 W/m 17,1 C 20,9 C 0,0 km/h (0 Bft)
10/09/2012 16:10 20,9 C 79 % 1015,8 hPa 0,0 mm 0,0 km/h (0 Bft) N 360 0 min 0 W/m 17,1 C 20,9 C 0,0 km/h (0 Bft)
10/09/2012 16:20 20,8 C 81 % 1015,7 hPa 0,0 mm 0,0 km/h (0 Bft) N-NO 337 0 min 0 W/m 17,4 C 20,8 C 0,0 km/h (0 Bft)
10/09/2012 16:30 21,1 C 81 % 1015,7 hPa 0,0 mm 0,0 km/h (0 Bft) N-NO 337 0 min 0 W/m 17,7 C 21,1 C 0,0 km/h (0 Bft)
10/09/2012 16:40 21,4 C 80 % 1015,6 hPa 0,0 mm 0,0 km/h (0 Bft) N-NO 337 0 min 0 W/m 17,8 C 21,4 C 0,0 km/h (0 Bft)
10/09/2012 16:50 21,7 C 80 % 1015,4 hPa 0,0 mm 0,0 km/h (0 Bft) N-NO 337 0 min 0 W/m 18,1 C 21,7 C 0,0 km/h (0 Bft)
10/09/2012 17:00 22,0 C 80 % 1015,4 hPa 0,0 mm 0,0 km/h (0 Bft) N-NO 337 0 min 0 W/m 18,4 C 22,0 C 1,4 km/h (1 Bft)
10/09/2012 17:10 22,5 C 78 % 1015,3 hPa 0,0 mm 0,0 km/h (0 Bft) N-NO 337 0 min 0 W/m 18,5 C 22,5 C 0,0 km/h (0 Bft)
10/09/2012 17:20 22,8 C 78 % 1015,2 hPa 0,0 mm 0,4 km/h (0 Bft) N 360 0 min 0 W/m 18,8 C 22,8 C 0,4 km/h (0 Bft)
10/09/2012 17:30 23,1 C 76 % 1015,1 hPa 0,0 mm 0,0 km/h (0 Bft) N 360 0 min 0 W/m 18,6 C 23,1 C 0,0 km/h (0 Bft)
10/09/2012 17:40 23,2 C 77 % 1015,0 hPa 0,0 mm 0,0 km/h (0 Bft) N 360 0 min 0 W/m 18,9 C 23,2 C 0,0 km/h (0 Bft)
10/09/2012 17:50 23,3 C 76 % 1015,1 hPa 0,0 mm 0,4 km/h (0 Bft) N-NE 22 0 min 0 W/m 18,8 C 23,3 C 3,6 km/h (1 Bft)
10/09/2012 18:00 23,5 C 75 % 1015,2 hPa 0,0 mm 0,7 km/h (0 Bft) NE 45 0 min 0 W/m 18,8 C 23,5 C 0,7 km/h (0 Bft)
10/09/2012 18:10 23,8 C 75 % 1015,0 hPa 0,0 mm 0,0 km/h (0 Bft) NE 45 0 min 0 W/m 19,1 C 23,8 C 0,0 km/h (0 Bft)
10/09/2012 18:20 24,0 C 74 % 1014,9 hPa 0,0 mm 0,0 km/h (0 Bft) NE 45 0 min 0 W/m 19,1 C 24,0 C 0,0 km/h (0 Bft)
10/09/2012 18:30 24,2 C 73 % 1015,0 hPa 0,0 mm 0,0 km/h (0 Bft) NE 45 0 min 0 W/m 19,0 C 24,2 C 0,0 km/h (0 Bft)
10/09/2012 18:40 24,1 C 72 % 1014,9 hPa 0,0 mm 0,0 km/h (0 Bft) NE 45 0 min 0 W/m 18,7 C 24,1 C 0,0 km/h (0 Bft)
10/09/2012 18:50 24,2 C 71 % 1014,9 hPa 0,0 mm 0,0 km/h (0 Bft) NE 45 0 min 0 W/m 18,6 C 24,2 C 0,0 km/h (0 Bft)
10/09/2012 19:00 24,1 C 71 % 1014,9 hPa 0,0 mm 0,0 km/h (0 Bft) NE 45 0 min 0 W/m 18,5 C 24,1 C 0,0 km/h (0 Bft)
10/09/2012 19:10 23,9 C 71 % 1014,8 hPa 0,0 mm 0,0 km/h (0 Bft) NE 45 0 min 0 W/m 18,3 C 23,9 C 0,0 km/h (0 Bft)
10/09/2012 19:20 23,6 C 72 % 1014,7 hPa 0,0 mm 0,0 km/h (0 Bft) NE 45 0 min 0 W/m 18,2 C 23,6 C 0,0 km/h (0 Bft)
10/09/2012 19:30 23,1 C 73 % 1014,6 hPa 0,0 mm 0,0 km/h (0 Bft) NE 45 0 min 0 W/m 18,0 C 23,1 C 0,0 km/h (0 Bft)
10/09/2012 19:40 22,8 C 74 % 1014,6 hPa 0,0 mm 0,0 km/h (0 Bft) NE 45 0 min 0 W/m 17,9 C 22,8 C 0,0 km/h (0 Bft)
10/09/2012 19:50 22,5 C 75 % 1014,6 hPa 0,0 mm 0,0 km/h (0 Bft) NE 45 0 min 0 W/m 17,8 C 22,5 C 0,0 km/h (0 Bft)
10/09/2012 20:00 22,1 C 75 % 1014,7 hPa 0,0 mm 0,0 km/h (0 Bft) N-NE 22 0 min 0 W/m 17,5 C 22,1 C 0,0 km/h (0 Bft)
_ Min-Heure 08:10 11:50 19:50 - 20:00 - - - - 07:00 08:10 20:00
Minimum _ 14,4 C 55 % 1014,6 hPa - 0,0 km/h (0 Bft) - - - - 11,9 C 14,4 C 0,0 km/h (0 Bft)
_ Max-Heure 11:30 08:30 11:50 20:00 12:30 - - 20:00 20:00 18:10 11:30 12:30
Maximum _ 25,1 C 87 % 1016,9 hPa 0,0 mm 5,0 km/h
SO (1 Bft)
- - 0 min 0 W/m 19,1 C 25,1 C 10,8 km/h
SO (2 Bft)
Moyenne _ 19,5 C 75 % 1016,0 hPa #0,0 mm 0,6 km/h (0 Bft) O - #0 min. 0 W/m 14,8 C 19,5 C 1,4 km/h (1 Bft)
Saint Bonnet de Bellac- Haute Vienne - France